Voltar ao catálogo

IRIDIUM 33 DEB

AtivoPO
NORAD 36080·DEBRIS·🇺🇸 United States

Lançado Sep 14, 1997 de Baikonur Cosmodrome

Loading…

Próximas Passagens (próximas 24 horas)

TLE

EnvelhecendoSource: Space-Track

Época: Sep 10, 2026, 06:27 UTC

1 36080U 97051VM  26253.26921644  .00001204  00000-0  32154-3 0  9996
2 36080  86.3136 249.5548 0016495 349.6876  10.3986 14.47549738513414

Acompanhe IRIDIUM 33 DEB em tempo real com AllMySat

Download on the App Store